Year,Month,Day,Hour,Minute,Value (Times are PST for temperature in C)
2011,05,29,00,00,11.20
2011,05,29,00,01,11.20
2011,05,29,00,02,11.20
2011,05,29,00,03,11.20
2011,05,29,00,04,11.20
2011,05,29,00,05,11.20
2011,05,29,00,06,11.20
2011,05,29,00,07,11.10
2011,05,29,00,08,11.10
2011,05,29,00,09,11.10
2011,05,29,00,10,11.10
2011,05,29,00,11,11.10
2011,05,29,00,12,11.10
2011,05,29,00,13,11.10
2011,05,29,00,14,11.10
2011,05,29,00,15,11.10
2011,05,29,00,16,11.10
2011,05,29,00,17,11.10
2011,05,29,00,18,11.00
2011,05,29,00,19,10.90
2011,05,29,00,20,10.90
2011,05,29,00,21,10.90
2011,05,29,00,22,10.90
2011,05,29,00,23,10.90
2011,05,29,00,24,10.90
2011,05,29,00,25,10.90
2011,05,29,00,26,10.80
2011,05,29,00,27,10.80
2011,05,29,00,28,10.80
2011,05,29,00,29,10.80
2011,05,29,00,30,10.80
2011,05,29,00,31,10.70
2011,05,29,00,32,10.70
2011,05,29,00,33,10.70
2011,05,29,00,34,10.70
2011,05,29,00,35,10.70
2011,05,29,00,36,10.70
2011,05,29,00,37,10.70
2011,05,29,00,38,10.70
2011,05,29,00,39,10.70
2011,05,29,00,40,10.70
2011,05,29,00,41,10.60
2011,05,29,00,42,10.70
2011,05,29,00,43,10.70
2011,05,29,00,44,10.70
2011,05,29,00,45,10.70
2011,05,29,00,46,10.70
2011,05,29,00,47,10.70
2011,05,29,00,48,10.70
2011,05,29,00,49,10.70
2011,05,29,00,50,10.70
2011,05,29,00,51,10.70
2011,05,29,00,52,10.70
2011,05,29,00,53,10.70
2011,05,29,00,54,10.70
2011,05,29,00,55,10.70
2011,05,29,00,56,10.70
2011,05,29,00,57,10.80
2011,05,29,00,58,10.80
2011,05,29,00,59,10.70
2011,05,29,01,00,10.70
2011,05,29,01,01,10.80
2011,05,29,01,02,10.80
2011,05,29,01,03,10.80
2011,05,29,01,04,10.80
2011,05,29,01,05,10.80
2011,05,29,01,06,10.80
2011,05,29,01,07,10.80
2011,05,29,01,08,10.80
2011,05,29,01,09,10.80
2011,05,29,01,10,10.80
2011,05,29,01,11,10.80
2011,05,29,01,12,10.80
2011,05,29,01,13,10.80
2011,05,29,01,14,10.80
2011,05,29,01,15,10.80
2011,05,29,01,16,10.80
2011,05,29,01,17,10.80
2011,05,29,01,18,10.80
2011,05,29,01,19,10.80
2011,05,29,01,20,10.80
2011,05,29,01,21,10.80
2011,05,29,01,22,10.80
2011,05,29,01,23,10.80
2011,05,29,01,24,10.80
2011,05,29,01,25,10.80
2011,05,29,01,26,10.70
2011,05,29,01,27,10.70
2011,05,29,01,28,10.70
2011,05,29,01,29,10.70
2011,05,29,01,30,10.70
2011,05,29,01,31,10.70
2011,05,29,01,32,10.70
2011,05,29,01,33,10.70
2011,05,29,01,34,10.70
2011,05,29,01,35,10.90
2011,05,29,01,36,10.90
2011,05,29,01,37,10.90
2011,05,29,01,38,10.90
2011,05,29,01,39,10.90
2011,05,29,01,40,10.90
2011,05,29,01,41,10.90
2011,05,29,01,42,10.90
2011,05,29,01,43,10.90
2011,05,29,01,44,10.90
2011,05,29,01,45,10.90
2011,05,29,01,46,10.90
2011,05,29,01,47,10.90
2011,05,29,01,48,10.90
2011,05,29,01,49,10.90
2011,05,29,01,50,10.90
2011,05,29,01,51,10.90
2011,05,29,01,52,10.90
2011,05,29,01,53,10.90
2011,05,29,01,54,10.90
2011,05,29,01,55,10.90
2011,05,29,01,56,10.90
2011,05,29,01,57,10.90
2011,05,29,01,58,10.90
2011,05,29,01,59,10.90
2011,05,29,02,00,10.90
2011,05,29,02,01,10.90
2011,05,29,02,02,10.90
2011,05,29,02,03,10.90
2011,05,29,02,04,10.90
2011,05,29,02,05,10.90
2011,05,29,02,06,10.90
2011,05,29,02,07,10.90
2011,05,29,02,08,11.00
2011,05,29,02,09,11.10
2011,05,29,02,10,11.10
2011,05,29,02,11,11.10
2011,05,29,02,12,11.10
2011,05,29,02,13,11.10
2011,05,29,02,14,11.10
2011,05,29,02,15,11.10
2011,05,29,02,16,11.10
2011,05,29,02,17,11.10
2011,05,29,02,18,11.10
2011,05,29,02,19,11.10
2011,05,29,02,20,11.10
2011,05,29,02,21,11.00
2011,05,29,02,22,10.90
2011,05,29,02,23,10.90
2011,05,29,02,24,10.90
2011,05,29,02,25,10.90
2011,05,29,02,26,10.90
2011,05,29,02,27,10.90
2011,05,29,02,28,10.90
2011,05,29,02,29,10.90
2011,05,29,02,30,10.90
2011,05,29,02,31,10.90
2011,05,29,02,32,10.90
2011,05,29,02,33,10.90
2011,05,29,02,34,10.90
2011,05,29,02,35,10.90
2011,05,29,02,36,10.90
2011,05,29,02,37,10.90
2011,05,29,02,38,10.90
2011,05,29,02,39,10.90
2011,05,29,02,40,10.90
2011,05,29,02,41,10.90
2011,05,29,02,42,10.90
2011,05,29,02,43,10.90
2011,05,29,02,44,10.90
2011,05,29,02,45,10.90
2011,05,29,02,46,10.90
2011,05,29,02,47,10.90
2011,05,29,02,48,10.90
2011,05,29,02,49,10.90
2011,05,29,02,50,10.90
2011,05,29,02,51,10.90
2011,05,29,02,52,10.90
2011,05,29,02,53,10.90
2011,05,29,02,54,10.90
2011,05,29,02,55,10.90
2011,05,29,02,56,10.90
2011,05,29,02,57,10.90
2011,05,29,02,58,10.90
2011,05,29,02,59,10.90
2011,05,29,03,00,10.90
2011,05,29,03,01,10.90
2011,05,29,03,02,10.90
2011,05,29,03,03,10.90
2011,05,29,03,04,10.90
2011,05,29,03,05,10.90
2011,05,29,03,06,10.90
2011,05,29,03,07,10.90
2011,05,29,03,08,10.90
2011,05,29,03,09,10.80
2011,05,29,03,10,10.80
2011,05,29,03,11,10.70
2011,05,29,03,12,10.70
2011,05,29,03,13,10.70
2011,05,29,03,14,10.60
2011,05,29,03,15,10.60
2011,05,29,03,16,10.60
2011,05,29,03,17,10.60
2011,05,29,03,18,10.60
2011,05,29,03,19,10.60
2011,05,29,03,20,10.60
2011,05,29,03,21,10.60
2011,05,29,03,22,10.60
2011,05,29,03,23,10.60
2011,05,29,03,24,10.50
2011,05,29,03,25,10.40
2011,05,29,03,26,10.40
2011,05,29,03,27,10.40
2011,05,29,03,28,10.30
2011,05,29,03,29,10.30
2011,05,29,03,30,10.30
2011,05,29,03,31,10.20
2011,05,29,03,32,10.20
2011,05,29,03,33,10.10
2011,05,29,03,34,10.10
2011,05,29,03,35,10.10
2011,05,29,03,36,10.10
2011,05,29,03,37,10.00
2011,05,29,03,38,9.90
2011,05,29,03,39,9.90
2011,05,29,03,40,9.90
2011,05,29,03,41,9.90
2011,05,29,03,42,9.80
2011,05,29,03,43,9.80
2011,05,29,03,44,9.70
2011,05,29,03,45,9.70
2011,05,29,03,46,9.70
2011,05,29,03,47,9.70
2011,05,29,03,48,9.70
2011,05,29,03,49,9.70
2011,05,29,03,50,9.70
2011,05,29,03,51,9.70
2011,05,29,03,52,9.70
2011,05,29,03,53,9.70
2011,05,29,03,54,9.70
2011,05,29,03,55,9.70
2011,05,29,06,28,7.80
2011,05,29,06,29,7.80
2011,05,29,06,30,7.80
2011,05,29,06,31,7.80
2011,05,29,06,32,7.80
2011,05,29,06,33,7.90
2011,05,29,06,34,7.90
2011,05,29,06,35,8.00
2011,05,29,06,36,8.00
2011,05,29,06,37,8.00
2011,05,29,06,38,8.10
2011,05,29,06,39,8.20
2011,05,29,06,40,8.20
2011,05,29,06,41,8.20
2011,05,29,06,42,8.30
2011,05,29,06,43,8.30
2011,05,29,06,44,8.40
2011,05,29,06,45,8.40
2011,05,29,06,46,8.50
2011,05,29,06,47,8.60
2011,05,29,06,48,8.60
2011,05,29,06,49,8.70
2011,05,29,06,50,8.70
2011,05,29,06,51,8.70
2011,05,29,06,52,8.70
2011,05,29,06,53,8.80
2011,05,29,06,54,8.80
2011,05,29,06,55,8.80
2011,05,29,06,56,8.90
2011,05,29,06,57,8.90
2011,05,29,06,58,8.90
2011,05,29,06,59,8.90
2011,05,29,07,00,9.00
2011,05,29,07,01,9.00
2011,05,29,07,02,9.00
2011,05,29,07,03,9.00
2011,05,29,07,04,9.10
2011,05,29,07,05,9.10
2011,05,29,07,06,9.20
2011,05,29,07,07,9.20
2011,05,29,07,08,9.20
2011,05,29,07,09,9.20
2011,05,29,07,10,9.20
2011,05,29,07,11,9.20
2011,05,29,07,12,9.20
2011,05,29,07,13,9.30
2011,05,29,07,14,9.30
2011,05,29,07,15,9.40
2011,05,29,07,16,9.40
2011,05,29,07,17,9.50
2011,05,29,07,18,9.50
2011,05,29,07,19,9.50
2011,05,29,07,20,9.50
2011,05,29,07,21,9.60
2011,05,29,07,22,9.60
2011,05,29,07,23,9.70
2011,05,29,07,24,9.70
2011,05,29,07,25,9.70
2011,05,29,07,26,9.80
2011,05,29,07,27,9.90
2011,05,29,07,28,9.90
2011,05,29,07,29,10.00
2011,05,29,07,30,10.10
2011,05,29,07,31,10.10
2011,05,29,07,32,10.20
2011,05,29,07,33,10.30
2011,05,29,07,34,10.30
2011,05,29,07,35,10.30
2011,05,29,07,36,10.40
2011,05,29,07,37,10.40
2011,05,29,07,38,10.50
2011,05,29,07,39,10.60
2011,05,29,07,40,10.60
2011,05,29,07,41,10.60
2011,05,29,07,42,10.70
2011,05,29,07,43,10.80
2011,05,29,07,44,10.80
2011,05,29,07,45,10.90
2011,05,29,07,46,10.90
2011,05,29,07,47,10.90
2011,05,29,07,48,10.90
2011,05,29,07,49,10.90
2011,05,29,07,50,10.90
2011,05,29,07,51,10.90
2011,05,29,07,52,10.90
2011,05,29,07,53,11.00
2011,05,29,07,54,11.10
2011,05,29,07,55,11.10
2011,05,29,07,56,11.10
2011,05,29,07,57,11.20
2011,05,29,07,58,11.20
2011,05,29,07,59,11.30
2011,05,29,08,00,11.40
2011,05,29,08,01,11.40
2011,05,29,08,02,11.40
2011,05,29,08,03,11.40
2011,05,29,08,04,11.40
2011,05,29,08,05,11.40
2011,05,29,08,06,11.40
2011,05,29,08,07,11.40
2011,05,29,08,08,11.40
2011,05,29,08,09,11.50
2011,05,29,08,10,11.60
2011,05,29,08,11,11.60
2011,05,29,08,12,11.60
2011,05,29,08,13,11.60
2011,05,29,08,14,11.60
2011,05,29,08,15,11.60
2011,05,29,08,16,11.60
2011,05,29,08,17,11.60
2011,05,29,08,18,11.60
2011,05,29,08,19,11.70
2011,05,29,08,20,11.70
2011,05,29,08,21,11.70
2011,05,29,08,22,11.70
2011,05,29,08,23,11.80
2011,05,29,08,24,11.80
2011,05,29,08,25,11.80
2011,05,29,08,26,11.80
2011,05,29,08,27,11.80
2011,05,29,08,28,11.80
2011,05,29,08,29,11.80
2011,05,29,08,30,11.90
2011,05,29,08,31,11.90
2011,05,29,08,32,12.00
2011,05,29,08,33,12.10
2011,05,29,08,34,12.10
2011,05,29,08,35,12.20
2011,05,29,08,36,12.30
2011,05,29,08,37,12.40
2011,05,29,08,38,12.40
2011,05,29,08,39,12.40
2011,05,29,08,40,12.40
2011,05,29,08,41,12.40
2011,05,29,08,42,12.50
2011,05,29,08,43,12.60
2011,05,29,08,44,12.60
2011,05,29,08,45,12.70
2011,05,29,08,46,12.70
2011,05,29,08,47,12.80
2011,05,29,08,48,12.80
2011,05,29,08,49,12.70
2011,05,29,08,50,12.70
2011,05,29,08,51,12.70
2011,05,29,08,52,12.70
2011,05,29,08,53,12.80
2011,05,29,08,54,12.80
2011,05,29,08,55,12.80
2011,05,29,08,56,12.80
2011,05,29,08,57,12.80
2011,05,29,08,58,12.80
2011,05,29,08,59,12.80
2011,05,29,09,00,12.80
2011,05,29,09,01,12.80
2011,05,29,09,02,12.80
2011,05,29,09,03,12.80
2011,05,29,09,04,12.70
2011,05,29,09,05,12.70
2011,05,29,09,06,12.70
2011,05,29,09,07,12.70
2011,05,29,09,08,12.70
2011,05,29,09,09,12.80
2011,05,29,09,10,12.80
2011,05,29,09,11,12.80
2011,05,29,09,12,12.80
2011,05,29,09,13,12.80
2011,05,29,09,14,12.80
2011,05,29,09,15,12.80
2011,05,29,09,16,12.80
2011,05,29,09,17,12.80
2011,05,29,09,18,12.80
2011,05,29,09,19,12.80
2011,05,29,09,20,12.80
2011,05,29,09,21,12.80
2011,05,29,09,22,12.80
2011,05,29,09,23,12.80
2011,05,29,09,24,12.80
2011,05,29,09,25,12.80
2011,05,29,09,26,12.80
2011,05,29,09,27,12.80
2011,05,29,09,28,12.90
2011,05,29,09,29,13.00
2011,05,29,09,30,13.10
2011,05,29,09,31,13.20
2011,05,29,09,32,13.30
2011,05,29,09,33,13.30
2011,05,29,09,34,13.30
2011,05,29,09,35,13.30
2011,05,29,09,36,13.30
2011,05,29,09,37,13.30
2011,05,29,09,38,13.30
2011,05,29,09,39,13.30
2011,05,29,09,40,13.40
2011,05,29,09,41,13.30
2011,05,29,09,42,13.30
2011,05,29,09,43,13.40
2011,05,29,09,44,13.40
2011,05,29,09,45,13.50
2011,05,29,09,46,13.60
2011,05,29,09,47,13.60
2011,05,29,09,48,13.70
2011,05,29,09,49,13.70
2011,05,29,09,50,13.70
2011,05,29,09,51,13.70
2011,05,29,09,52,13.70
2011,05,29,09,53,13.70
2011,05,29,09,54,13.80
2011,05,29,09,55,13.80
2011,05,29,09,56,13.90
2011,05,29,09,57,13.90
2011,05,29,09,58,13.90
2011,05,29,09,59,13.90
2011,05,29,10,00,13.80
2011,05,29,10,01,13.80
2011,05,29,10,02,13.70
2011,05,29,10,03,13.70
2011,05,29,10,04,13.70
2011,05,29,10,05,13.90
2011,05,29,10,06,13.90
2011,05,29,10,07,13.90
2011,05,29,10,08,13.90
2011,05,29,10,09,13.90
2011,05,29,10,10,14.00
2011,05,29,10,11,14.10
2011,05,29,10,12,14.10
2011,05,29,10,13,14.10
2011,05,29,10,14,14.10
2011,05,29,10,15,14.10
2011,05,29,10,16,14.20
2011,05,29,10,17,14.20
2011,05,29,10,18,14.20
2011,05,29,10,19,14.30
2011,05,29,10,20,14.40
2011,05,29,10,21,14.50
2011,05,29,10,22,14.60
2011,05,29,10,23,14.70
2011,05,29,10,24,14.60
2011,05,29,10,25,14.50
2011,05,29,10,26,14.40
2011,05,29,10,27,14.40
2011,05,29,10,28,14.40
2011,05,29,10,29,14.50
2011,05,29,10,30,14.50
2011,05,29,10,31,14.50
2011,05,29,10,32,14.50
2011,05,29,10,33,14.40
2011,05,29,10,34,14.30
2011,05,29,10,35,14.30
2011,05,29,10,36,14.20
2011,05,29,10,37,14.30
2011,05,29,10,38,14.30
2011,05,29,10,39,14.30
2011,05,29,10,40,14.20
2011,05,29,10,41,14.10
2011,05,29,10,42,14.10
2011,05,29,10,43,14.10
2011,05,29,10,44,14.10
2011,05,29,10,45,14.20
2011,05,29,10,46,14.20
2011,05,29,10,47,14.30
2011,05,29,10,48,14.30
2011,05,29,10,49,14.40
2011,05,29,10,50,14.50
2011,05,29,10,51,14.50
2011,05,29,10,52,14.50
2011,05,29,10,53,14.60
2011,05,29,10,54,14.60
2011,05,29,10,55,14.60
2011,05,29,10,56,14.60
2011,05,29,10,57,14.60
2011,05,29,10,58,14.60
2011,05,29,10,59,14.70
2011,05,29,11,00,14.70
2011,05,29,11,01,14.80
2011,05,29,11,02,14.80
2011,05,29,11,03,14.80
2011,05,29,11,04,14.90
2011,05,29,11,05,14.90
2011,05,29,11,06,15.00
2011,05,29,11,07,15.00
2011,05,29,11,08,15.00
2011,05,29,11,09,15.10
2011,05,29,11,10,15.20
2011,05,29,11,11,15.30
2011,05,29,11,12,15.40
2011,05,29,11,13,15.50
2011,05,29,11,14,15.50
2011,05,29,11,15,15.50
2011,05,29,11,16,15.40
2011,05,29,11,17,15.40
2011,05,29,11,18,15.40
2011,05,29,11,19,15.40
2011,05,29,11,20,15.30
2011,05,29,11,21,15.30
2011,05,29,11,22,15.20
2011,05,29,11,23,15.10
2011,05,29,11,24,14.90
2011,05,29,11,25,14.70
2011,05,29,11,26,14.60
2011,05,29,11,27,14.50
2011,05,29,11,28,14.60
2011,05,29,11,29,14.70
2011,05,29,11,30,14.90
2011,05,29,11,31,15.00
2011,05,29,11,32,15.10
2011,05,29,11,33,15.30
2011,05,29,11,34,15.40
2011,05,29,11,35,15.40
2011,05,29,11,36,15.30
2011,05,29,11,37,15.20
2011,05,29,11,38,15.10
2011,05,29,11,39,15.10
2011,05,29,11,40,15.00
2011,05,29,11,41,15.00
2011,05,29,11,42,15.10
2011,05,29,11,43,15.10
2011,05,29,11,44,15.10
2011,05,29,11,45,15.10
2011,05,29,11,46,15.00
2011,05,29,11,47,15.00
2011,05,29,11,48,14.90
2011,05,29,11,49,14.90
2011,05,29,11,50,14.90
2011,05,29,11,51,14.90
2011,05,29,11,52,15.00
2011,05,29,11,53,15.10
2011,05,29,11,54,15.30
2011,05,29,11,55,15.40
2011,05,29,11,56,15.60
2011,05,29,11,57,15.60
2011,05,29,11,58,15.60
2011,05,29,11,59,15.70
2011,05,29,12,00,15.70
2011,05,29,12,01,15.80
2011,05,29,12,02,15.80
2011,05,29,12,03,15.80
2011,05,29,12,04,15.90
2011,05,29,12,05,15.90
2011,05,29,12,06,15.90
2011,05,29,12,07,16.10
2011,05,29,12,08,16.20
2011,05,29,12,09,16.10
2011,05,29,12,10,16.00
2011,05,29,12,11,15.80
2011,05,29,12,12,15.80
2011,05,29,12,13,15.80
2011,05,29,12,14,15.80
2011,05,29,12,15,15.80
2011,05,29,12,16,15.80
2011,05,29,12,17,15.90
2011,05,29,12,18,16.10
2011,05,29,12,19,16.10
2011,05,29,12,20,16.20
2011,05,29,12,21,16.30
2011,05,29,12,22,16.30
2011,05,29,12,23,16.30
2011,05,29,12,24,16.30
2011,05,29,12,25,16.20
2011,05,29,12,26,16.10
2011,05,29,12,27,16.10
2011,05,29,12,28,16.20
2011,05,29,12,29,16.30
2011,05,29,12,30,16.30
2011,05,29,12,31,16.40
2011,05,29,12,32,16.30
2011,05,29,12,33,16.30
2011,05,29,12,34,16.40
2011,05,29,12,35,16.30
2011,05,29,12,36,16.40
2011,05,29,12,37,16.50
2011,05,29,12,38,16.60
2011,05,29,12,39,16.60
2011,05,29,12,40,16.60
2011,05,29,12,41,16.50
2011,05,29,12,42,16.40
2011,05,29,12,43,16.40
2011,05,29,12,44,16.40
2011,05,29,12,45,16.40
2011,05,29,12,46,16.30
2011,05,29,12,47,16.30
2011,05,29,12,48,16.30
2011,05,29,12,49,16.30
2011,05,29,12,50,16.40
2011,05,29,12,51,16.60
2011,05,29,12,52,16.50
2011,05,29,12,53,16.50
2011,05,29,12,54,16.60
2011,05,29,12,55,16.70
2011,05,29,12,56,16.80
2011,05,29,12,57,16.90
2011,05,29,12,58,16.90
2011,05,29,12,59,16.90
2011,05,29,13,00,16.80
2011,05,29,13,01,16.70
2011,05,29,13,02,16.70
2011,05,29,13,03,16.80
2011,05,29,13,04,16.90
2011,05,29,13,05,16.90
2011,05,29,13,06,16.90
2011,05,29,13,07,17.00
2011,05,29,13,08,17.10
2011,05,29,13,09,17.20
2011,05,29,13,10,17.30
2011,05,29,13,11,17.30
2011,05,29,13,12,17.30
2011,05,29,13,13,17.40
2011,05,29,13,14,17.40
2011,05,29,13,15,17.30
2011,05,29,13,16,17.30
2011,05,29,13,17,17.20
2011,05,29,13,18,17.00
2011,05,29,13,19,17.00
2011,05,29,13,20,17.00
2011,05,29,13,21,17.20
2011,05,29,13,22,17.20
2011,05,29,13,23,17.30
2011,05,29,13,24,17.30
2011,05,29,13,25,17.40
2011,05,29,13,26,17.30
2011,05,29,13,27,17.10
2011,05,29,13,28,17.00
2011,05,29,13,29,17.00
2011,05,29,13,30,17.10
2011,05,29,13,31,17.10
2011,05,29,13,32,17.20
2011,05,29,13,33,17.20
2011,05,29,13,34,17.20
2011,05,29,13,35,17.30
2011,05,29,13,36,17.50
2011,05,29,13,37,17.60
2011,05,29,13,38,17.60
2011,05,29,13,39,17.50
2011,05,29,13,40,17.50
2011,05,29,13,41,17.30
2011,05,29,13,42,17.00
2011,05,29,13,43,17.00
2011,05,29,13,44,16.90
2011,05,29,13,45,16.80
2011,05,29,13,46,16.80
2011,05,29,13,47,16.80
2011,05,29,13,48,16.70
2011,05,29,13,49,16.70
2011,05,29,13,50,16.70
2011,05,29,13,51,16.70
2011,05,29,13,52,16.70
2011,05,29,13,53,16.70
2011,05,29,13,54,16.70
2011,05,29,13,55,16.90
2011,05,29,13,56,17.00
2011,05,29,13,57,17.00
2011,05,29,13,58,17.10
2011,05,29,13,59,17.20
2011,05,29,14,00,17.20
2011,05,29,14,01,17.00
2011,05,29,14,02,16.90
2011,05,29,14,03,16.80
2011,05,29,14,04,16.70
2011,05,29,14,05,16.80
2011,05,29,14,06,17.00
2011,05,29,14,07,17.10
2011,05,29,14,08,17.30
2011,05,29,14,09,17.30
2011,05,29,14,10,17.20
2011,05,29,14,11,17.10
2011,05,29,14,12,17.00
2011,05,29,14,13,16.90
2011,05,29,14,14,17.00
2011,05,29,14,15,17.00
2011,05,29,14,16,17.10
2011,05,29,14,17,17.20
2011,05,29,14,18,17.30
2011,05,29,14,19,17.30
2011,05,29,14,20,17.30
2011,05,29,14,21,17.30
2011,05,29,14,22,17.30
2011,05,29,14,23,17.20
2011,05,29,14,24,17.10
2011,05,29,14,25,17.00
2011,05,29,14,26,17.00
2011,05,29,14,27,17.10
2011,05,29,14,28,17.30
2011,05,29,14,29,17.30
2011,05,29,14,30,17.40
2011,05,29,14,31,17.60
2011,05,29,14,32,17.70
2011,05,29,14,33,17.70
2011,05,29,14,34,17.80
2011,05,29,14,35,17.90
2011,05,29,14,36,17.90
2011,05,29,14,37,18.10
2011,05,29,14,38,18.20
2011,05,29,14,39,18.10
2011,05,29,14,40,18.00
2011,05,29,14,41,17.90
2011,05,29,14,42,17.90
2011,05,29,14,43,17.90
2011,05,29,14,44,17.90
2011,05,29,14,45,17.70
2011,05,29,14,46,17.50
2011,05,29,14,47,17.40
2011,05,29,14,48,17.20
2011,05,29,14,49,17.10
2011,05,29,14,50,17.00
2011,05,29,14,51,17.00
2011,05,29,14,52,17.10
2011,05,29,14,53,17.20
2011,05,29,14,54,17.30
2011,05,29,14,55,17.30
2011,05,29,14,56,17.20
2011,05,29,14,57,17.20
2011,05,29,14,58,17.20
2011,05,29,14,59,17.20
2011,05,29,15,00,17.20
2011,05,29,15,01,17.20
2011,05,29,15,02,17.10
2011,05,29,15,03,17.00
2011,05,29,15,04,17.00
2011,05,29,15,05,16.90
2011,05,29,15,06,16.80
2011,05,29,15,07,16.70
2011,05,29,15,08,16.70
2011,05,29,15,09,16.70
2011,05,29,15,10,16.70
2011,05,29,15,11,16.70
2011,05,29,15,12,16.70
2011,05,29,15,13,16.70
2011,05,29,15,14,16.70
2011,05,29,15,15,16.70
2011,05,29,15,16,16.70
2011,05,29,15,17,16.70
2011,05,29,15,18,16.70
2011,05,29,15,19,16.70
2011,05,29,15,20,16.80
2011,05,29,15,21,16.80
2011,05,29,15,22,16.70
2011,05,29,15,23,16.70
2011,05,29,15,24,16.70
2011,05,29,15,25,16.60
2011,05,29,15,26,16.60
2011,05,29,15,27,16.60
2011,05,29,15,28,16.60
2011,05,29,15,29,16.80
2011,05,29,15,30,16.80
2011,05,29,15,31,16.80
2011,05,29,15,32,16.70
2011,05,29,15,33,16.70
2011,05,29,15,34,16.70
2011,05,29,15,35,16.80
2011,05,29,15,36,16.80
2011,05,29,15,37,16.90
2011,05,29,15,38,17.00
2011,05,29,15,39,17.10
2011,05,29,15,40,17.20
2011,05,29,15,41,17.30
2011,05,29,15,42,17.30
2011,05,29,15,43,17.30
2011,05,29,15,44,17.30
2011,05,29,15,45,17.50
2011,05,29,15,46,17.60
2011,05,29,15,47,17.70
2011,05,29,15,48,17.70
2011,05,29,15,49,17.70
2011,05,29,15,50,17.50
2011,05,29,15,51,17.40
2011,05,29,15,52,17.40
2011,05,29,15,53,17.40
2011,05,29,15,54,17.30
2011,05,29,15,55,17.30
2011,05,29,15,56,17.30
2011,05,29,15,57,17.30
2011,05,29,15,58,17.30
2011,05,29,15,59,17.20
2011,05,29,16,00,17.10
2011,05,29,16,01,17.00
2011,05,29,16,02,17.00
2011,05,29,16,03,17.00
2011,05,29,16,04,16.90
2011,05,29,16,05,16.90
2011,05,29,16,06,16.80
2011,05,29,16,07,16.90
2011,05,29,16,08,17.00
2011,05,29,16,09,17.10
2011,05,29,16,10,17.10
2011,05,29,16,11,17.00
2011,05,29,16,12,16.90
2011,05,29,16,13,16.90
2011,05,29,16,14,16.90
2011,05,29,16,15,16.70
2011,05,29,16,16,16.70
2011,05,29,16,17,16.60
2011,05,29,16,18,16.50
2011,05,29,16,19,16.40
2011,05,29,16,20,16.40
2011,05,29,16,21,16.40
2011,05,29,16,22,16.40
2011,05,29,16,23,16.40
2011,05,29,16,24,16.50
2011,05,29,16,25,16.60
2011,05,29,16,26,16.70
2011,05,29,16,27,16.70
2011,05,29,16,28,16.70
2011,05,29,16,29,16.70
2011,05,29,16,30,16.70
2011,05,29,16,31,16.70
2011,05,29,16,32,16.60
2011,05,29,16,33,16.60
2011,05,29,16,34,16.60
2011,05,29,16,35,16.60
2011,05,29,16,36,16.40
2011,05,29,16,37,16.40
2011,05,29,16,38,16.40
2011,05,29,16,39,16.40
2011,05,29,16,40,16.40
2011,05,29,16,41,16.30
2011,05,29,16,42,16.30
2011,05,29,16,43,16.30
2011,05,29,16,44,16.30
2011,05,29,16,45,16.30
2011,05,29,16,46,16.30
2011,05,29,16,47,16.30
2011,05,29,16,48,16.30
2011,05,29,16,49,16.30
2011,05,29,16,50,16.40
2011,05,29,16,51,16.40
2011,05,29,16,52,16.50
2011,05,29,16,53,16.60
2011,05,29,16,54,16.70
2011,05,29,16,55,16.70
2011,05,29,16,56,16.70
2011,05,29,16,57,16.70
2011,05,29,16,58,16.70
2011,05,29,16,59,16.70
2011,05,29,17,00,16.70
2011,05,29,17,01,16.70
2011,05,29,17,02,16.70
2011,05,29,17,03,16.70
2011,05,29,17,04,16.70
2011,05,29,17,05,16.70
2011,05,29,17,06,16.70
2011,05,29,17,07,16.70
2011,05,29,17,08,16.60
2011,05,29,17,09,16.40
2011,05,29,17,10,16.40
2011,05,29,17,11,16.30
2011,05,29,17,12,16.20
2011,05,29,17,13,16.20
2011,05,29,17,14,16.20
2011,05,29,17,15,16.30
2011,05,29,17,16,16.50
2011,05,29,17,17,16.60
2011,05,29,17,18,16.50
2011,05,29,17,19,16.40
2011,05,29,17,20,16.40
2011,05,29,17,21,16.30
2011,05,29,17,22,16.20
2011,05,29,17,23,16.10
2011,05,29,17,24,16.00
2011,05,29,17,25,15.80
2011,05,29,17,26,15.80
2011,05,29,17,27,15.80
2011,05,29,17,28,15.80
2011,05,29,17,29,15.80
2011,05,29,17,30,15.80
2011,05,29,17,31,15.80
2011,05,29,17,32,15.80
2011,05,29,17,33,15.80
2011,05,29,17,34,15.80
2011,05,29,17,35,15.80
2011,05,29,17,36,15.80
2011,05,29,17,37,15.80
2011,05,29,17,38,15.80
2011,05,29,17,39,15.80
2011,05,29,17,40,15.80
2011,05,29,17,41,15.80
2011,05,29,17,42,15.70
2011,05,29,17,43,15.70
2011,05,29,17,44,15.60
2011,05,29,17,45,15.60
2011,05,29,17,46,15.50
2011,05,29,17,47,15.40
2011,05,29,17,48,15.40
2011,05,29,17,49,15.30
2011,05,29,17,50,15.20
2011,05,29,17,51,15.20
2011,05,29,17,52,15.20
2011,05,29,17,53,15.20
2011,05,29,17,54,15.10
2011,05,29,17,55,15.10
2011,05,29,17,56,15.10
2011,05,29,17,57,15.00
2011,05,29,17,58,15.00
2011,05,29,17,59,15.00
2011,05,29,18,00,15.00
2011,05,29,18,01,14.90
2011,05,29,18,02,14.90
2011,05,29,18,03,15.00
2011,05,29,18,04,15.00
2011,05,29,18,05,15.00
2011,05,29,18,06,15.00
2011,05,29,18,07,15.00
2011,05,29,18,08,15.10
2011,05,29,18,09,15.10
2011,05,29,18,10,15.10
2011,05,29,18,11,15.00
2011,05,29,18,12,15.00
2011,05,29,18,13,14.90
2011,05,29,18,14,14.90
2011,05,29,18,15,14.80
2011,05,29,18,16,14.80
2011,05,29,18,17,14.80
2011,05,29,18,18,14.80
2011,05,29,18,19,14.80
2011,05,29,18,20,14.70
2011,05,29,18,21,14.70
2011,05,29,18,22,14.70
2011,05,29,18,23,14.70
2011,05,29,18,24,14.70
2011,05,29,18,25,14.60
2011,05,29,18,26,14.60
2011,05,29,18,27,14.60
2011,05,29,18,28,14.60
2011,05,29,18,29,14.50
2011,05,29,18,30,14.60
2011,05,29,18,31,14.50
2011,05,29,18,32,14.60
2011,05,29,18,33,14.50
2011,05,29,18,34,14.60
2011,05,29,18,35,14.60
2011,05,29,18,36,14.60
2011,05,29,18,37,14.60
2011,05,29,18,38,14.70
2011,05,29,18,39,14.70
2011,05,29,18,40,14.60
2011,05,29,18,41,14.60
2011,05,29,18,42,14.60
2011,05,29,18,43,14.60
2011,05,29,18,44,14.50
2011,05,29,18,45,14.40
2011,05,29,18,46,14.30
2011,05,29,18,47,14.20
2011,05,29,18,48,14.20
2011,05,29,18,49,14.20
2011,05,29,18,50,14.20
2011,05,29,18,51,14.20
2011,05,29,18,52,14.20
2011,05,29,18,53,14.20
2011,05,29,18,54,14.20
2011,05,29,18,55,14.20
2011,05,29,18,56,14.20
2011,05,29,18,57,14.20
2011,05,29,18,58,14.20
2011,05,29,18,59,14.20
2011,05,29,19,00,14.20
2011,05,29,19,01,14.20
2011,05,29,19,02,14.20
2011,05,29,19,03,14.20
2011,05,29,19,04,14.20
2011,05,29,19,05,14.20
2011,05,29,19,06,14.20
2011,05,29,19,07,14.20
2011,05,29,19,08,14.30
2011,05,29,19,09,14.30
2011,05,29,19,10,14.30
2011,05,29,19,11,14.20
2011,05,29,19,12,14.20
2011,05,29,19,13,14.20
2011,05,29,19,14,14.20
2011,05,29,19,15,14.20
2011,05,29,19,16,14.20
2011,05,29,19,17,14.20
2011,05,29,19,18,14.20
2011,05,29,19,19,14.20
2011,05,29,19,20,14.20
2011,05,29,19,21,14.20
2011,05,29,19,22,14.20
2011,05,29,19,23,14.20
2011,05,29,19,24,14.20
2011,05,29,19,25,14.20
2011,05,29,19,26,14.20
2011,05,29,19,27,14.10
2011,05,29,19,28,14.00
2011,05,29,19,29,14.00
2011,05,29,19,30,13.90
2011,05,29,19,31,13.90
2011,05,29,19,32,13.90
2011,05,29,19,33,13.90
2011,05,29,19,34,13.90
2011,05,29,19,35,13.80
2011,05,29,19,36,13.80
2011,05,29,19,37,13.80
2011,05,29,19,38,13.80
2011,05,29,19,39,13.90
2011,05,29,19,40,13.90
2011,05,29,19,41,13.80
2011,05,29,19,42,13.80
2011,05,29,19,43,13.80
2011,05,29,19,44,13.90
2011,05,29,19,45,13.80
2011,05,29,19,46,13.80
2011,05,29,19,47,13.80
2011,05,29,19,48,13.80
2011,05,29,19,49,13.80
2011,05,29,19,50,13.80
2011,05,29,19,51,13.80
2011,05,29,19,52,13.80
2011,05,29,19,53,13.70
2011,05,29,19,54,13.70